TimeCST,TemperatureF,Dew PointF,Humidity,Sea Level PressureIn,VisibilityMPH,Wind Direction,Wind SpeedMPH,Gust SpeedMPH,PrecipitationIn,Events,Conditions,WindDirDegrees,DateUTC
12:08 AM,71.6,66.2,83,29.90,10.0,South,5.8,-,N/A,,Mostly Cloudy,170,2012-12-10 06:08:00
12:53 AM,71.1,66.9,87,29.90,10.0,South,6.9,-,N/A,,Overcast,180,2012-12-10 06:53:00
1:53 AM,71.1,66.0,84,29.88,10.0,South,9.2,-,N/A,,Mostly Cloudy,180,2012-12-10 07:53:00
2:53 AM,70.0,66.0,87,29.86,10.0,South,5.8,-,N/A,,Partly Cloudy,170,2012-12-10 08:53:00
3:53 AM,69.1,66.0,90,29.82,10.0,South,6.9,-,N/A,,Partly Cloudy,170,2012-12-10 09:53:00
4:15 AM,69.8,66.2,88,29.82,10.0,South,8.1,-,N/A,,Mostly Cloudy,180,2012-12-10 10:15:00
4:24 AM,69.8,66.2,88,29.82,10.0,South,6.9,-,N/A,,Mostly Cloudy,170,2012-12-10 10:24:00
4:49 AM,69.8,66.2,88,29.82,10.0,South,6.9,-,N/A,,Mostly Cloudy,180,2012-12-10 10:49:00
4:53 AM,70.0,66.0,87,29.81,10.0,SSW,8.1,-,N/A,,Mostly Cloudy,200,2012-12-10 10:53:00
5:17 AM,71.6,66.2,83,29.81,10.0,South,13.8,-,N/A,,Overcast,180,2012-12-10 11:17:00
5:26 AM,69.8,66.2,88,29.81,10.0,South,10.4,-,N/A,,Mostly Cloudy,190,2012-12-10 11:26:00
5:34 AM,71.6,66.2,83,29.81,10.0,South,9.2,-,N/A,,Mostly Cloudy,190,2012-12-10 11:34:00
5:53 AM,71.1,66.0,84,29.80,10.0,South,9.2,18.4,N/A,,Mostly Cloudy,180,2012-12-10 11:53:00
6:53 AM,71.1,66.0,84,29.81,10.0,South,8.1,-,N/A,,Scattered Clouds,190,2012-12-10 12:53:00
7:53 AM,72.0,66.9,84,29.82,10.0,SSW,8.1,-,N/A,,Mostly Cloudy,200,2012-12-10 13:53:00
8:28 AM,71.6,66.2,83,29.83,10.0,SSW,9.2,-,0.01,Rain,Light Rain,200,2012-12-10 14:28:00
8:53 AM,71.1,66.9,87,29.82,10.0,South,4.6,-,0.03,Rain,Light Rain,190,2012-12-10 14:53:00
9:15 AM,71.6,66.2,83,29.81,7.0,South,5.8,-,0.00,Rain-Thunderstorm,Rain,170,2012-12-10 15:15:00
9:37 AM,68.0,62.6,83,29.84,4.0,West,18.4,25.3,0.05,Rain-Thunderstorm,Rain,280,2012-12-10 15:37:00
9:41 AM,68.0,62.6,83,29.85,1.5,WNW,18.4,25.3,0.17,Rain-Thunderstorm,Heavy Rain,290,2012-12-10 15:41:00
9:45 AM,66.2,62.6,88,29.85,0.8,WSW,12.7,25.3,0.27,Rain-Thunderstorm,Heavy Rain,240,2012-12-10 15:45:00
9:49 AM,68.0,62.6,83,29.85,0.8,SW,13.8,23.0,0.29,Rain-Thunderstorm,Heavy Rain,230,2012-12-10 15:49:00
9:58 AM,66.2,62.6,88,29.84,-9999.0,SW,12.7,-,0.34,Rain-Thunderstorm,Heavy Thunderstorms and Rain,220,2012-12-10 15:58:00
10:53 AM,66.0,63.0,90,29.83,-9999.0,Calm,Calm,-,0.49,Rain,Heavy Rain,0,2012-12-10 16:53:00
10:56 AM,66.2,62.6,88,29.83,2.0,WSW,4.6,-,0.01,Rain-Thunderstorm,Heavy Rain,250,2012-12-10 16:56:00
11:14 AM,66.2,62.6,88,29.83,4.0,SSW,5.8,-,0.07,Rain-Thunderstorm,Heavy Rain,210,2012-12-10 17:14:00
11:29 AM,66.2,62.6,88,29.82,3.0,WSW,5.8,-,0.11,Rain,Rain,240,2012-12-10 17:29:00
11:43 AM,66.2,62.6,88,29.82,2.0,SW,5.8,-,0.16,Rain,Heavy Rain,220,2012-12-10 17:43:00
11:53 AM,66.0,64.0,93,29.81,3.0,SW,4.6,-,0.18,Rain,Rain,230,2012-12-10 17:53:00
12:00 PM,66.2,64.4,94,29.82,2.0,SW,6.9,-,0.03,Rain,Rain,230,2012-12-10 18:00:00
12:08 PM,66.2,62.6,88,29.81,1.5,SW,6.9,-,0.07,Rain,Rain,220,2012-12-10 18:08:00
12:13 PM,66.2,64.4,94,29.81,3.0,WSW,4.6,-,0.08,Rain,Rain,240,2012-12-10 18:13:00
12:26 PM,66.2,64.4,94,29.81,4.0,SW,6.9,-,0.10,Rain,Rain,220,2012-12-10 18:26:00
12:34 PM,62.6,60.8,94,29.82,2.0,WNW,11.5,21.9,0.16,Rain,Heavy Rain,300,2012-12-10 18:34:00
12:42 PM,60.8,57.2,88,29.82,3.0,WNW,12.7,-,0.18,Rain,Heavy Rain,300,2012-12-10 18:42:00
12:53 PM,60.1,57.9,93,29.81,4.0,NW,13.8,-,0.21,Rain,Rain,310,2012-12-10 18:53:00
1:00 PM,60.8,57.2,88,29.82,5.0,NW,11.5,-,0.01,Rain,Rain,310,2012-12-10 19:00:00
1:53 PM,57.0,54.0,89,29.83,10.0,NW,10.4,-,0.03,Rain,Light Rain,310,2012-12-10 19:53:00
2:53 PM,55.0,51.1,86,29.85,10.0,NW,11.5,19.6,0.00,,Overcast,320,2012-12-10 20:53:00
3:44 PM,53.6,48.2,82,29.87,10.0,NW,10.4,18.4,N/A,,Overcast,320,2012-12-10 21:44:00
3:53 PM,54.0,48.9,83,29.86,10.0,NNW,10.4,19.6,N/A,,Overcast,330,2012-12-10 21:53:00
4:53 PM,52.0,46.9,83,29.89,10.0,NNW,10.4,-,N/A,,Overcast,330,2012-12-10 22:53:00
5:53 PM,51.1,45.0,80,29.92,10.0,NNW,11.5,19.6,N/A,,Overcast,330,2012-12-10 23:53:00
6:11 PM,50.0,44.6,82,29.93,10.0,NW,10.4,18.4,N/A,,Overcast,320,2012-12-11 00:11:00
6:53 PM,50.0,44.1,80,29.95,10.0,NW,12.7,19.6,N/A,,Overcast,320,2012-12-11 00:53:00
7:33 PM,50.0,42.8,76,29.97,10.0,NNW,13.8,20.7,N/A,,Overcast,330,2012-12-11 01:33:00
7:40 PM,50.0,42.8,76,29.97,10.0,North,12.7,-,N/A,,Overcast,350,2012-12-11 01:40:00
7:53 PM,48.9,41.0,74,29.98,10.0,NNW,12.7,23.0,N/A,,Overcast,340,2012-12-11 01:53:00
8:28 PM,48.2,39.2,71,29.99,10.0,North,9.2,-,N/A,,Scattered Clouds,350,2012-12-11 02:28:00
8:53 PM,46.9,39.0,74,29.99,10.0,North,9.2,-,N/A,,Scattered Clouds,350,2012-12-11 02:53:00
9:53 PM,45.0,35.1,68,30.00,10.0,North,10.4,-,N/A,,Clear,350,2012-12-11 03:53:00
10:53 PM,43.0,36.0,76,30.02,10.0,NNW,5.8,-,N/A,,Clear,340,2012-12-11 04:53:00
11:53 PM,43.0,36.0,76,30.02,10.0,North,4.6,-,N/A,,Clear,350,2012-12-11 05:53:00